[[{"header":{"parameterUnit":"m.s-1","parameterCategory":1,"la1":30.2991,"la2":30.254,"lo1":-89.0895,"lo2":-89.0444,"dy":0.0017,"dx":0.0017,"nx":28,"ny":28,"refTime":"2025-12-23T03:00:00:Z","depth":0,"parameterNumber":2,"parameterNumberName":"U-component_of_WINDS"},"data":[0,0,0,0,0,0,0,0,0,0,0,0,0,0,0,0,0,0,0,0,0,0,0,0,0,0,0,0,0,0,0,0,0,0,0,0,0,0,0,0,0,0,0,0,0,0,0,0,0,0,0,0,0,0,0,0,0,0,-2.1344,-2.1344,0,-2.1411,-2.1411,-2.1412,-2.1393,-2.1391,-2.139,-2.1389,-2.1459,-2.1462,-2.1465,0,0,0,0,0,0,0,0,0,0,0,0,0,-2.1202,-2.1204,-2.1344,-2.1345,-2.1345,-2.1411,-2.1411,-2.1412,-2.1393,-2.1391,-2.139,-2.1388,-2.1458,-2.1462,-2.1466,0,0,0,0,0,0,0,0,0,0,0,0,0,-2.1266,-2.1205,-2.1344,-2.1344,-2.1344,-2.141,-2.1412,-2.1413,-2.1393,-2.1391,-2.1389,-2.1387,-2.1457,-2.1462,-2.1466,-2.1537,0,0,-2.1481,-2.1483,0,0,0,0,0,0,0,0,-2.1262,-2.1271,-2.1343,-2.1344,-2.1344,-2.1391,-2.1387,-2.1454,-2.1394,-2.1375,-2.1389,-2.1386,-2.1438,-2.1445,-2.1462,-2.154,-2.1543,-2.1481,-2.1484,-2.1486,-2.1487,0,0,0,0,0,0,0,-2.1258,-2.1268,-2.137,-2.1344,-2.1345,-2.1341,-2.1348,-2.14,-2.1418,-2.1376,-2.1375,-2.1383,-2.1439,-2.1457,-2.1463,-2.1544,-2.1481,-2.1485,-2.1488,-2.149,-2.1686,-2.1688,0,0,0,0,0,0,-2.1252,-2.1264,-2.1368,-2.1372,-2.1297,-2.1345,-2.1353,-2.1378,-2.1417,-2.1421,-2.1385,-2.1382,-2.145,-2.1458,-2.1466,-2.1552,-2.1486,-2.1491,-2.1493,-2.1684,-2.1687,-2.1689,0,0,0,0,0,0,-2.1249,-2.1262,-2.1365,-2.1318,-2.1331,-2.135,-2.1379,-2.1381,-2.1399,-2.1423,-2.1427,-2.14,-2.1449,-2.1459,-2.152,-2.1554,-2.1493,-2.1497,-2.1681,-2.1685,-2.1688,-2.1724,0,0,0,0,0,0,-2.1245,-2.1261,-2.1287,-2.1319,-2.1333,-2.1417,-2.1381,-2.1384,-2.1407,-2.1404,-2.1439,-2.1443,-2.1448,-2.1513,-2.1524,-2.1559,-2.1501,-2.1678,-2.1683,-2.1687,-2.172,-2.1728,-2.1736,0,0,0,0,0,-2.124,-2.1295,-2.1288,-2.1301,-2.1367,-2.1419,-2.1428,-2.1432,-2.141,-2.1437,-2.1453,-2.1441,-2.1548,-2.1519,-2.1532,-2.1569,-2.1676,-2.1681,-2.1687,-2.1716,-2.1727,-2.1735,0,0,0,0,0,0,-2.1267,-2.1299,-2.1292,-2.1358,-2.1386,-2.1416,-2.145,-2.1443,-2.1478,-2.1474,-2.1479,-2.1487,-2.1549,-2.1565,-2.1532,-2.164,-2.1609,-2.1617,-2.1627,-2.1637,-2.1645,-2.164,-2.1505,0,0,0,0,0,-2.128,-2.1319,-2.1346,-2.1402,-2.1416,-2.1431,-2.1454,-2.1455,-2.1485,-2.1496,-2.1516,-2.1546,-2.1586,-2.1613,-2.1651,-2.1722,-2.173,-2.1754,-2.1762,-2.1769,-2.1775,-2.1815,-2.1827,-2.1707,-2.1707,-2.1707,0,0,-2.1308,-2.1331,-2.1355,-2.1407,-2.1429,-2.1471,-2.1441,-2.1486,-2.1517,-2.1503,-2.1562,-2.1578,-2.1611,-2.1678,-2.1708,-2.1693,-2.1811,-2.1775,-2.178,-2.1784,-2.1822,-2.1833,-2.1843,-2.171,-2.171,-2.1709,0,0,-2.1381,-2.1401,-2.145,-2.1473,-2.1507,-2.1516,-2.1528,-2.156,-2.157,-2.1628,-2.1619,-2.1657,-2.1727,-2.1751,-2.1773,-2.1857,-2.1848,-2.1869,-2.191,-2.1949,-2.1958,-2.1967,-2.1997,-2.2008,-2.1876,-2.1876,-2.1876,0,-2.1411,-2.1473,-2.1477,-2.1523,-2.1547,-2.1536,-2.1587,-2.1609,-2.1653,-2.1671,-2.1653,-2.1741,-2.1762,-2.1835,-2.1856,-2.1873,-2.1888,-2.1865,-2.1957,-2.1965,-2.1973,-2.2002,-2.2013,-2.1879,-2.1878,-2.1878,-2.1878,0,-2.1509,-2.1553,-2.1588,-2.1631,-2.1659,-2.1707,-2.1719,-2.1748,-2.1747,-2.1759,-2.182,-2.1846,-2.189,-2.1908,-2.1907,-2.1981,-2.197,-2.1955,-2.1924,-2.1987,-2.2014,-2.2025,-2.1882,-2.1881,-2.188,-2.188,0,0,-2.1599,-2.1644,-2.1657,-2.1677,-2.1714,-2.1748,-2.1797,-2.1839,-2.1864,-2.1895,-2.1937,-2.1996,-2.1983,-2.2007,-2.201,-2.2044,-2.211,-2.2025,-2.2026,-2.204,-2.2193,-2.2204,-2.2217,-2.2105,-2.2107,-2.2109,-2.2191,0,-2.1674,-2.1758,-2.1764,-2.184,-2.1881,-2.1873,-2.1915,-2.1943,-2.1956,-2.1993,-2.2008,-2.2051,-2.2029,-2.2044,-2.2078,-2.2095,-2.2141,-2.2089,-2.2144,-2.2146,-2.2135,-2.2231,-2.2243,-2.2319,-2.2201,-2.2203,-2.2204,0,-2.1773,-2.1808,-2.1888,-2.192,-2.1938,-2.1975,-2.2016,-2.2051,-2.2084,-2.2091,-2.2119,-2.2118,-2.2169,-2.2136,-2.2208,-2.2172,-2.2195,-2.2208,-2.2211,-2.2215,-2.2178,-2.2239,-2.2343,-2.2355,-2.2221,-2.222,-2.2219,0,-2.183,-2.1897,-2.1954,-2.1971,-2.2011,-2.2038,-2.2055,-2.2086,-2.2111,-2.2147,-2.2164,-2.2206,-2.2229,-2.2262,-2.2272,-2.2247,-2.2343,-2.2311,-2.2351,-2.2351,-2.2371,-2.237,-2.248,-2.2387,-2.2387,-2.2386,-2.2386,0,-2.1913,-2.1963,-2.198,-2.2015,-2.2071,-2.2078,-2.2134,-2.215,-2.2177,-2.2216,-2.2213,-2.2249,-2.2261,-2.23,-2.2309,-2.2367,-2.2378,-2.2386,-2.2387,-2.2386,-2.2385,-2.24,-2.2395,-2.2389,-2.2389,-2.2388,-2.2388,0,-2.1986,-2.1999,-2.2061,-2.2094,-2.2103,-2.2143,-2.2171,-2.2206,-2.2219,-2.2268,-2.2281,-2.2302,-2.2348,-2.2362,-2.2418,-2.2424,-2.2492,-2.2489,-2.248,-2.248,-2.252,-2.2516,-2.2644,-2.2662,-2.2557,-2.2558,-2.2559,0,-2.2038,-2.2076,-2.2113,-2.2138,-2.2157,-2.2199,-2.2225,-2.2234,-2.2262,-2.2303,-2.2333,-2.2378,-2.2415,-2.249,-2.2511,-2.2554,-2.2552,-2.2594,-2.2558,-2.2556,-2.2553,-2.255,-2.2555,-2.2601,-2.2602,-2.2603,-2.2603,0,-2.2129,-2.2134,-2.2172,-2.2213,-2.2244,-2.2277,-2.2308,-2.233,-2.2344,-2.2376,-2.2423,-2.2452,-2.2509,-2.2555,-2.2599,-2.2619,-2.2614,-2.2615,-2.2626,-2.2625,-2.2618,-2.2623,-2.2499,-2.2611,-2.2611,-2.261,-2.261,-2.2609,-2.2193,-2.2226,-2.2258,-2.2301,-2.2325,-2.2355,-2.2389,-2.2407,-2.2446,-2.2493,-2.2497,-2.2548,-2.2582,-2.264,-2.2663,-2.2704,-2.2691,-2.2708,-2.2712,-2.2716,-2.2719,-2.2612,-2.2712,-2.2712,-2.2711,-2.2711,-2.2711,0,-2.2283,-2.2303,-2.2343,-2.2387,-2.2421,-2.2414,-2.2449,-2.2478,-2.2523,-2.2554,-2.2591,-2.2646,-2.2691,-2.2716,-2.2761,-2.2789,-2.2788,-2.2801,-2.2799,-2.2803,-2.2728,-2.2713,-2.2801,-2.2801,-2.2801,-2.2801,-2.2801,-2.2801,-2.2334,-2.2391,-2.24,-2.247,-2.249,-2.254,-2.2561,-2.2589,-2.2614,-2.2675,-2.2713,-2.2729,-2.2758,-2.2806,-2.2847,-2.2853,-2.287,-2.2884,-2.2889,-2.2818,-2.2809,-2.28,-2.2786,-2.2888,-2.2888,-2.2962,-2.2962,-2.2963]},{"header":{"parameterUnit":"m.s-1","parameterCategory":1,"la1":30.2991,"la2":30.254,"lo1":-89.0895,"lo2":-89.0444,"dy":0.0017,"dx":0.0017,"nx":28,"ny":28,"refTime":"2025-12-23T03:00:00:Z","depth":0,"parameterNumber":3,"parameterNumberName":"V-component_of_WINDS"},"data":[0,0,0,0,0,0,0,0,0,0,0,0,0,0,0,0,0,0,0,0,0,0,0,0,0,0,0,0,0,0,0,0,0,0,0,0,0,0,0,0,0,0,0,0,0,0,0,0,0,0,0,0,0,0,0,0,0,0,0.4954,0.4955,0,0.5083,0.5084,0.5086,0.5222,0.5224,0.5225,0.5227,0.536,0.5361,0.5363,0,0,0,0,0,0,0,0,0,0,0,0,0,0.4825,0.4827,0.4953,0.4955,0.4957,0.5082,0.5084,0.5086,0.5221,0.5224,0.5226,0.5228,0.5359,0.5361,0.5363,0,0,0,0,0,0,0,0,0,0,0,0,0,0.491,0.4827,0.4953,0.5039,0.5048,0.5082,0.5084,0.5087,0.5221,0.5224,0.5227,0.5229,0.5358,0.5361,0.5363,0.5323,0,0,0.5371,0.5373,0,0,0,0,0,0,0,0,0.4905,0.4915,0.5025,0.5033,0.5044,0.5139,0.5088,0.5166,0.522,0.5155,0.5227,0.5231,0.5284,0.5293,0.5311,0.5329,0.5335,0.5372,0.5373,0.5374,0.5375,0,0,0,0,0,0,0,0.4899,0.491,0.5005,0.5026,0.5038,0.5072,0.5087,0.5103,0.5202,0.5161,0.5171,0.5185,0.5289,0.5308,0.5315,0.5337,0.5372,0.5374,0.5376,0.5377,0.5329,0.5327,0,0,0,0,0,0,0.488,0.4904,0.5001,0.5009,0.498,0.5072,0.5089,0.5105,0.5202,0.522,0.5182,0.5191,0.5302,0.5312,0.532,0.528,0.5374,0.5377,0.5378,0.5332,0.5329,0.5326,0,0,0,0,0,0,0.4877,0.4887,0.4995,0.4959,0.4975,0.5071,0.5089,0.5106,0.5125,0.5218,0.5237,0.5183,0.5305,0.5316,0.5321,0.5286,0.5378,0.538,0.5336,0.5331,0.5327,0.5198,0,0,0,0,0,0,0.4872,0.4885,0.487,0.4958,0.4977,0.4994,0.5086,0.5107,0.5129,0.5142,0.5224,0.524,0.5308,0.5317,0.5324,0.5292,0.5383,0.5339,0.5334,0.5329,0.5206,0.519,0.5176,0,0,0,0,0,0.4867,0.4829,0.4869,0.488,0.496,0.4991,0.5003,0.5081,0.5126,0.5112,0.5172,0.5237,0.5289,0.5316,0.5325,0.5293,0.5342,0.5335,0.5329,0.5213,0.5193,0.5177,0,0,0,0,0,0,0.4735,0.4842,0.4888,0.4876,0.4923,0.5014,0.4999,0.5058,0.5094,0.5104,0.52,0.5218,0.5212,0.5253,0.5282,0.526,0.5325,0.532,0.5233,0.5215,0.5201,0.5191,0.5385,0,0,0,0,0,0.4704,0.472,0.4813,0.4794,0.4815,0.4903,0.4919,0.4976,0.5029,0.505,0.5111,0.516,0.5188,0.5204,0.5234,0.5212,0.5233,0.5195,0.518,0.5168,0.5162,0.5155,0.514,0.5305,0.5305,0.5305,0,0,0.4641,0.4701,0.4706,0.4769,0.4812,0.4827,0.4919,0.4931,0.4943,0.5052,0.5061,0.5106,0.5168,0.516,0.5159,0.5194,0.5121,0.5159,0.5149,0.5151,0.5147,0.5131,0.5117,0.53,0.5301,0.5302,0,0,0.4534,0.4581,0.4571,0.4613,0.4678,0.4736,0.4733,0.4816,0.485,0.486,0.4943,0.4959,0.5004,0.5045,0.5072,0.498,0.5042,0.4988,0.491,0.4902,0.4889,0.4878,0.4846,0.4834,0.4982,0.4982,0.4982,0,0.4448,0.4473,0.4558,0.4565,0.4591,0.469,0.4681,0.4718,0.4789,0.4804,0.4842,0.4902,0.495,0.4953,0.4931,0.4949,0.495,0.4979,0.4884,0.4874,0.4865,0.4836,0.4823,0.4975,0.4976,0.4976,0.4977,0,0.4364,0.4381,0.4365,0.4431,0.4455,0.4453,0.4539,0.4553,0.4607,0.4662,0.4671,0.4733,0.4778,0.4783,0.4836,0.4794,0.4814,0.4866,0.4934,0.4841,0.4815,0.4804,0.4965,0.4967,0.4969,0.4971,0,0,0.4177,0.4291,0.4284,0.4316,0.4395,0.441,0.4413,0.4457,0.4468,0.4513,0.4519,0.4555,0.4605,0.4635,0.4694,0.4687,0.4612,0.4741,0.4744,0.4715,0.457,0.453,0.4515,0.4653,0.4651,0.465,0.4565,0,0.4085,0.4097,0.4174,0.4164,0.4181,0.4275,0.4279,0.4328,0.4379,0.4401,0.4458,0.4482,0.4545,0.4564,0.4561,0.4621,0.4584,0.4628,0.466,0.466,0.4642,0.4502,0.446,0.4377,0.4555,0.4554,0.4552,0,0.3979,0.4018,0.4009,0.4089,0.4099,0.4101,0.4148,0.4168,0.4225,0.4263,0.4297,0.4363,0.4373,0.4435,0.445,0.4479,0.4496,0.4528,0.4526,0.4533,0.4601,0.4505,0.4352,0.434,0.4537,0.4538,0.454,0,0.3844,0.3895,0.3897,0.3921,0.4014,0.4013,0.4052,0.4112,0.4134,0.4176,0.4191,0.4232,0.4255,0.4286,0.4362,0.44,0.4368,0.4437,0.4401,0.4399,0.439,0.439,0.4238,0.44,0.44,0.44,0.44,0,0.3733,0.3724,0.3838,0.3839,0.3832,0.3921,0.3912,0.396,0.4013,0.4026,0.411,0.412,0.422,0.4241,0.43,0.4304,0.4314,0.4345,0.4361,0.4338,0.4334,0.4351,0.4359,0.4397,0.4398,0.4398,0.4399,0,0.3582,0.3657,0.3666,0.3753,0.3775,0.3766,0.3841,0.3846,0.3903,0.3918,0.3926,0.4015,0.4045,0.4123,0.4173,0.4214,0.4201,0.423,0.4181,0.4192,0.4151,0.4154,0.4006,0.3991,0.416,0.4159,0.4157,0,0.3506,0.3502,0.3588,0.3603,0.3638,0.366,0.3683,0.377,0.3791,0.3856,0.3853,0.389,0.3924,0.3967,0.4036,0.4075,0.4107,0.4052,0.4113,0.409,0.4107,0.4106,0.4107,0.4038,0.4036,0.4034,0.4033,0,0.3364,0.3402,0.3431,0.3474,0.3499,0.3537,0.358,0.3587,0.3684,0.3703,0.3735,0.3761,0.3812,0.3848,0.3898,0.3938,0.4002,0.4013,0.4007,0.3983,0.3955,0.3971,0.4146,0.4016,0.4018,0.4019,0.402,0.4021,0.3249,0.325,0.3311,0.3342,0.3383,0.3421,0.343,0.3488,0.3516,0.3564,0.3614,0.364,0.3699,0.3773,0.3809,0.3831,0.3865,0.3855,0.3853,0.3849,0.3839,0.3951,0.3841,0.3841,0.3842,0.3842,0.3843,0,0.3112,0.3157,0.3184,0.3241,0.3265,0.3322,0.3373,0.3389,0.3411,0.3461,0.3492,0.3529,0.3564,0.3635,0.3677,0.3681,0.3711,0.3689,0.369,0.3698,0.3807,0.3808,0.3664,0.3664,0.3664,0.3664,0.3664,0.3664,0.3044,0.3049,0.3093,0.312,0.3165,0.3191,0.3215,0.3251,0.3291,0.3328,0.3357,0.3404,0.3463,0.3509,0.3544,0.3565,0.3576,0.3544,0.3574,0.3674,0.3691,0.3707,0.3709,0.3546,0.3546,0.3464,0.3463,0.3463]}]]